GEFSSE_con_prob3kmehi_006.txt.gz
EHI
0 6 14 11 3 0 0 0 0 0 0 0 0 0 0 0 0 0 0 0 0 0 0 0 0 0 0 0 0 0 0 0 0 0 0 0 0 0 0 0 0 0 0
0 5 16 18 7 0 0 0 0 0 0 0 0 0 0 0 0 0 0 0 0 0 0 0 0 0 0 0 0 0 0 0 0 0 0 0 0 0 0 0 0 0 0
6 5 12 17 9 1 1 0 0 0 0 0 0 0 0 0 0 0 0 0 0 0 0 0 0 0 0 0 0 0 0 0 0 0 0 0 0 0 0 0 0 0 0
17 7 7 12 10 9 13 8 2 0 0 0 0 0 0 0 0 0 0 0 0 0 0 0 0 0 0 0 0 0 0 0 0 0 0 0 0 0 0 0 0 0 0
25 18 21 25 21 30 42 30 9 1 0 0 0 0 0 0 0 0 0 0 0 0 0 0 0 0 0 0 0 0 0 0 0 0 0 0 0 0 0 0 0 0 0
33 37 49 51 46 57 70 53 20 3 0 0 0 0 0 0 0 0 0 0 0 0 0 0 0 0 0 0 0 0 0 0 0 0 0 0 0 0 0 0 0 0 0
47 57 72 77 74 79 85 66 32 7 0 0 0 0 0 0 0 0 0 0 0 0 0 0 0 0 0 0 0 0 0 0 0 0 0 0 0 1 2 2 2 4 4
51 66 84 89 89 91 92 80 54 31 17 8 2 0 0 0 0 0 0 0 0 0 0 0 0 0 0 0 0 0 0 0 0 0 0 0 0 2 7 9 10 12 14
34 60 83 87 87 92 95 92 83 70 56 37 19 7 1 0 0 0 0 0 0 0 0 0 0 0 0 0 0 0 0 0 0 0 0 0 0 2 7 16 28 34 34
16 41 68 71 71 80 88 92 93 89 80 63 37 14 3 0 0 0 0 0 0 0 0 0 0 0 1 1 0 0 0 0 0 0 0 0 0 2 9 27 52 64 62
7 20 39 44 46 57 66 70 71 68 60 47 27 10 2 0 0 0 0 0 0 0 0 0 0 0 1 1 0 0 0 0 0 0 0 0 0 3 18 46 73 83 83
6 8 14 18 20 28 36 37 36 30 22 14 7 2 0 0 0 0 0 0 0 0 0 0 0 0 1 1 0 0 0 0 0 0 0 0 0 4 25 61 85 91 91
20 10 3 3 4 7 11 14 14 11 8 7 4 2 0 0 0 0 0 0 0 1 1 1 1 0 0 0 0 0 0 0 0 0 0 0 0 3 23 59 85 93 94
46 27 10 5 1 0 1 4 8 10 11 11 8 3 0 0 0 0 0 0 0 1 2 2 1 0 0 0 0 0 0 0 0 0 0 0 1 7 27 55 78 89 93
60 42 28 22 10 1 0 1 2 6 9 10 7 4 1 1 2 2 1 0 0 1 3 3 2 1 1 0 0 0 0 0 0 0 0 1 7 21 42 62 75 84 89
68 52 43 40 21 4 1 5 9 11 9 7 5 3 4 7 12 15 13 6 2 3 5 7 6 5 4 2 1 0 0 0 0 0 0 3 13 33 52 65 73 80 84
80 69 59 52 34 12 8 17 26 25 15 6 3 2 5 12 26 41 38 19 8 9 15 16 13 10 9 5 2 0 0 0 0 0 0 2 11 28 46 57 64 71 76
94 88 80 72 54 29 17 21 26 22 12 4 1 1 2 8 26 51 55 34 21 26 33 29 18 11 8 5 1 0 0 0 0 0 0 2 6 15 29 41 44 47 53
99 97 92 82 65 42 21 12 11 9 4 1 0 0 0 2 14 36 50 47 45 51 51 38 19 7 3 1 0 0 0 0 0 0 0 1 4 8 13 19 23 24 24
90 87 79 63 47 31 15 4 1 1 0 0 0 0 0 0 4 17 36 53 68 72 65 47 23 5 0 0 0 0 0 0 0 0 0 0 2 3 4 5 9 11 9
59 55 44 30 18 11 5 1 0 0 0 0 0 0 0 0 2 9 25 47 68 77 73 57 30 8 0 0 0 0 0 0 0 0 0 0 0 0 0 1 4 4 3
21 18 12 7 3 1 0 0 0 0 0 0 0 0 0 0 3 8 17 31 46 57 59 49 28 8 0 0 0 0 0 0 0 0 0 0 0 0 0 0 0 0 0
3 2 0 0 1 1 1 1 0 0 0 0 0 0 0 0 3 8 11 14 20 25 28 25 15 5 0 0 0 0 0 0 0 0 0 0 0 0 0 0 0 0 0
1 0 0 0 1 3 3 2 0 0 0 0 0 0 0 0 1 4 5 4 4 5 6 6 5 2 0 0 0 0 0 0 0 0 0 0 0 0 0 0 0 0 0
0 0 0 0 1 3 3 1 0 0 0 0 0 0 0 0 0 0 1 0 0 0 0 0 1 1 0 0 0 0 0 0 0 0 0 0 0 0 0 0 0 0 0
0 0 0 0 1 2 1 0 0 0 0 0 0 0 0 0 0 0 0 0 0 0 0 0 0 0 0 0 0 0 0 0 0 0 0 0 0 0 0 0 0 0 0

GEFSSE_con_prob3kmehi_012.txt.gz
EHI
0 3 6 3 0 0 0 0 1 2 3 2 1 0 0 0 0 0 0 0 0 0 0 0 0 0 0 0 0 0 0 0 0 0 0 0 0 0 0 0 0 0 0
0 2 4 2 0 0 0 0 0 1 1 1 0 0 0 0 0 0 0 0 0 0 0 0 0 0 0 0 0 0 0 0 0 0 0 0 0 0 0 0 0 0 0
0 1 1 1 0 0 0 0 0 0 0 0 0 0 0 0 0 0 0 0 0 0 0 0 0 0 0 0 0 0 0 0 0 0 0 0 0 0 0 0 0 0 0
0 0 0 0 0 0 0 1 2 2 1 1 0 0 0 0 0 0 0 0 0 0 0 0 0 0 0 0 0 0 0 0 0 0 0 0 0 0 0 0 0 0 0
0 0 0 0 0 0 0 1 4 4 3 2 1 0 0 0 0 0 0 0 0 0 0 0 0 0 0 0 0 0 0 0 0 0 0 0 0 0 0 0 0 0 0
0 0 0 1 0 0 0 1 3 3 2 1 0 0 0 0 0 0 0 0 0 0 0 0 0 0 0 0 0 0 0 0 0 0 0 0 0 0 0 0 0 0 0
1 0 2 4 2 0 0 0 1 1 0 0 0 0 0 0 0 0 0 0 0 0 0 0 0 0 0 0 0 0 0 0 0 0 0 0 0 0 0 0 0 0 0
3 2 3 6 3 0 0 0 0 0 0 0 0 0 0 0 0 0 0 0 0 0 0 0 0 0 0 0 0 0 0 0 0 0 0 0 0 0 0 0 0 0 0
5 3 3 4 2 0 0 0 0 0 0 0 0 0 0 0 0 0 0 0 0 0 0 0 0 0 0 0 0 0 0 0 0 0 0 0 0 0 0 0 0 0 0
4 5 6 5 2 1 0 0 1 1 0 0 0 0 0 0 0 0 0 0 0 0 0 0 0 0 0 0 0 0 0 0 0 0 0 0 0 0 0 0 0 0 0
2 5 11 13 12 11 8 6 6 5 3 2 1 0 0 0 0 0 0 0 0 0 0 0 0 0 0 0 0 0 0 0 0 0 0 0 0 0 0 0 0 0 0
0 3 9 19 28 36 35 28 22 19 15 10 6 2 0 0 0 0 0 0 0 0 0 0 0 0 0 0 0 0 0 0 0 0 0 0 0 0 0 0 0 0 0
0 0 4 12 30 50 56 47 37 36 32 24 15 7 2 1 0 0 0 0 0 0 0 0 0 0 0 0 0 0 0 0 0 0 0 0 0 0 0 0 0 0 0
0 0 0 3 15 32 40 33 29 32 33 28 20 14 11 9 4 1 1 0 0 0 0 0 0 0 0 0 0 0 0 0 0 0 0 0 0 0 0 0 0 0 0
0 0 0 0 2 8 10 8 8 13 18 19 15 16 26 30 21 10 4 1 1 0 0 1 1 0 0 0 0 0 0 0 0 0 0 0 0 0 0 0 0 0 0
2 1 0 0 0 0 0 0 0 3 8 9 7 11 25 37 33 18 6 1 1 1 1 2 1 0 0 0 0 0 0 0 0 0 0 0 0 0 0 0 0 0 0
21 15 10 8 5 1 0 0 0 1 3 3 2 4 10 18 18 11 4 1 2 3 3 2 1 1 0 0 0 0 0 0 0 0 0 0 0 0 0 0 0 0 0
58 50 42 36 23 9 2 0 0 0 0 0 0 0 0 1 2 2 2 1 3 5 4 2 2 3 2 0 1 0 0 0 0 0 0 0 0 0 0 0 0 0 0
78 75 72 63 42 17 4 1 0 0 0 0 0 0 0 1 1 2 1 1 2 4 3 2 5 6 3 1 2 1 0 0 0 0 0 0 0 0 0 0 0 0 0
57 60 63 55 34 14 4 1 0 0 0 0 0 0 0 1 2 1 1 1 1 2 3 4 6 6 3 2 1 0 0 0 0 0 0 0 0 0 0 0 0 0 0
24 26 29 25 13 4 1 0 0 0 0 0 0 0 0 1 1 0 0 1 2 2 4 5 6 5 3 1 0 0 0 0 0 0 0 0 0 0 0 0 0 0 0
5 6 7 5 2 0 0 0 0 0 0 0 0 0 0 0 0 0 0 1 1 1 3 5 6 5 3 1 0 0 0 0 0 0 0 0 0 0 0 0 0 0 0
1 1 1 0 0 0 0 1 1 0 0 0 0 0 0 0 0 0 0 0 0 0 1 4 6 6 5 3 1 0 0 0 0 0 0 0 0 0 0 0 0 0 0
0 0 0 0 0 0 0 1 2 1 0 0 0 0 0 0 0 0 0 0 0 0 1 2 4 5 6 5 3 1 0 0 0 0 0 0 0 0 0 0 0 0 0
0 0 0 0 0 0 0 1 1 1 0 0 0 0 0 0 0 0 0 0 0 0 0 1 2 3 4 4 2 1 0 0 0 0 0 0 0 0 0 0 0 0 0
0 0 0 0 0 0 0 0 1 0 0 0 0 0 0 0 0 0 0 0 0 0 0 0 1 1 1 2 1 1 1 1 0 0 0 0 0 0 0 0 0 0 0

GEFSSE_con_prob3kmehi_018.txt.gz
EHI
0 0 0 0 0 0 0 0 1 2 5 5 2 0 0 0 0 0 0 0 0 0 0 0 0 0 0 0 0 0 0 0 0 0 0 0 0 0 0 0 0 0 0
0 0 0 0 0 0 0 0 0 2 4 5 3 1 0 0 0 0 0 0 0 0 0 0 0 0 0 0 0 0 0 0 0 0 0 0 0 0 0 0 0 0 0
0 0 0 0 0 0 0 0 0 2 4 6 4 1 0 0 0 0 0 0 0 0 0 0 0 0 0 0 0 0 0 0 0 0 0 0 0 0 0 0 0 0 0
0 0 0 0 0 0 0 0 0 1 3 4 4 1 0 0 0 0 0 0 0 0 0 0 0 0 0 0 0 0 0 0 0 0 0 0 0 0 0 0 0 0 0
0 0 0 0 0 0 0 0 0 0 1 1 1 0 0 0 0 0 0 0 0 0 0 0 0 0 0 0 0 0 0 0 0 0 0 0 0 0 0 0 0 0 0
0 0 0 0 0 0 0 0 0 0 0 0 0 0 0 0 0 0 0 0 0 0 0 0 0 0 0 0 0 0 0 0 0 0 0 0 0 1 0 0 0 0 0
0 0 1 1 0 0 0 0 0 0 0 0 0 0 0 0 0 0 0 0 0 0 0 0 0 0 0 0 0 0 0 0 0 0 0 0 1 2 1 0 0 0 0
0 1 2 2 0 0 0 0 0 0 0 0 0 0 0 0 0 0 0 0 0 0 0 0 0 0 0 0 0 0 0 0 0 0 0 3 7 6 1 0 0 0 0
0 0 1 1 0 0 0 0 1 0 0 0 0 0 0 0 0 0 0 0 0 0 0 0 0 0 0 0 0 0 0 0 0 0 0 10 20 11 1 0 0 0 0
0 0 0 0 0 0 0 1 1 1 0 0 0 0 0 0 0 0 0 0 0 0 0 0 0 0 0 0 0 0 0 0 0 0 2 18 29 16 0 0 0 0 0
0 0 0 0 1 0 1 2 2 2 3 2 1 2 2 1 0 0 1 1 0 0 0 0 0 0 0 0 0 0 0 0 0 0 7 26 31 13 0 0 0 0 0
0 0 0 1 2 1 1 2 2 6 9 6 4 5 6 3 1 1 2 2 1 0 0 0 0 0 0 0 0 0 0 0 0 0 13 33 29 9 0 0 0 0 0
0 0 0 1 2 1 1 2 2 9 15 11 6 9 14 15 11 9 8 5 1 0 0 0 0 0 0 0 0 0 0 0 0 1 15 32 24 5 0 0 0 0 0
0 0 0 0 0 0 0 1 2 7 11 11 9 13 24 32 29 28 32 24 12 5 3 2 1 0 0 0 0 0 0 0 0 2 12 23 16 3 0 0 0 0 0
0 0 0 0 0 0 0 1 1 2 3 7 11 15 25 39 43 47 56 53 35 20 14 9 4 1 1 0 0 0 0 0 0 1 7 12 10 4 1 0 0 0 0
0 0 0 0 1 2 4 4 3 2 1 4 7 8 15 29 37 41 50 52 43 32 24 15 9 6 4 3 1 0 0 0 0 1 2 6 7 4 1 0 0 0 0
1 1 1 3 8 12 14 15 11 6 3 5 6 4 6 13 20 23 26 28 31 32 30 25 20 17 14 11 7 5 5 4 3 1 2 4 5 4 3 2 1 0 0
4 7 8 12 22 28 27 25 21 12 8 10 12 8 4 5 9 12 14 17 24 32 38 40 41 39 34 31 24 16 14 13 8 5 6 8 10 9 8 7 6 3 1
14 17 20 26 38 39 30 26 22 16 12 12 11 8 4 3 5 7 10 14 18 25 33 42 54 59 58 53 41 28 23 24 23 21 19 17 17 15 10 10 10 6 3
29 29 32 38 42 35 23 17 14 11 8 6 4 3 2 1 1 2 3 5 6 9 14 25 39 49 56 57 44 31 27 29 38 44 40 28 19 12 6 7 11 11 10
37 35 33 34 30 19 10 6 4 3 2 1 0 0 0 0 0 0 0 0 0 1 3 8 14 19 28 36 34 26 21 24 36 48 50 38 20 7 2 2 10 19 23
31 27 22 19 14 8 4 2 1 1 0 0 0 0 0 0 0 0 0 0 0 0 0 1 1 2 6 12 17 15 10 12 22 32 42 43 29 14 5 2 8 20 26
18 14 10 8 8 8 8 5 3 2 1 0 0 0 1 0 0 0 0 0 0 0 0 0 0 0 0 2 4 5 4 5 9 19 30 34 32 23 12 7 8 12 16
8 6 4 6 12 17 18 14 9 4 1 0 0 1 2 1 0 0 0 0 0 0 0 0 0 0 0 0 1 1 1 3 5 11 18 19 21 22 18 16 12 8 8
5 3 2 8 20 32 34 27 18 9 2 0 0 1 2 1 0 0 0 0 0 0 0 0 0 0 0 0 0 1 2 3 4 4 6 10 14 17 19 20 17 12 12
6 3 2 8 24 41 45 37 25 13 3 1 0 1 1 1 0 0 0 0 0 0 0 0 0 0 0 0 0 1 2 3 2 0 2 8 14 18 21 20 16 14 17

GEFSSE_con_prob3kmehi_024.txt.gz
EHI
17 15 17 13 3 0 0 0 0 0 0 0 0 0 0 0 0 0 0 0 0 0 0 0 0 0 0 0 0 0 0 0 0 0 0 0 0 0 0 0 0 0 0
16 14 15 11 3 0 0 0 0 0 0 0 0 0 0 0 0 0 0 0 0 0 0 0 0 0 0 0 0 0 0 0 0 0 0 0 0 0 0 0 0 0 0
10 8 10 8 3 0 0 0 0 0 0 0 0 0 0 0 0 0 0 0 0 0 0 0 0 0 0 0 0 0 0 0 0 0 0 0 0 0 0 0 0 0 0
2 2 5 7 4 1 0 0 0 0 0 0 0 0 0 0 0 0 0 0 0 0 0 0 0 0 0 0 0 0 0 0 0 0 0 0 0 0 0 0 0 0 0
1 1 4 7 5 1 0 0 0 0 0 0 0 0 0 0 0 0 0 0 0 0 0 0 0 0 0 0 0 0 0 0 0 0 0 1 2 2 1 0 0 0 0
2 2 3 5 4 1 0 0 0 0 0 0 0 0 0 0 0 0 0 0 0 0 0 0 0 0 0 0 0 0 0 0 0 0 0 3 9 12 8 3 0 0 0
7 5 3 5 4 1 0 0 0 0 0 0 0 0 0 0 0 0 0 0 0 0 0 0 0 0 0 0 0 0 0 0 0 0 0 9 28 40 30 13 4 1 0
19 11 5 6 5 2 1 0 0 0 0 0 0 0 0 0 0 0 0 0 0 0 0 0 0 0 0 0 0 0 0 0 0 0 0 18 53 72 59 35 16 4 1
36 23 8 4 6 4 2 1 0 0 0 0 0 0 0 0 0 0 0 0 0 0 0 0 0 0 0 1 2 2 1 0 0 0 2 25 67 89 81 62 37 15 5
49 36 14 4 6 4 2 2 2 1 1 1 0 0 0 0 0 1 1 0 0 0 0 1 1 1 2 4 6 7 5 2 0 0 4 31 73 95 92 79 58 33 17
51 44 24 17 17 8 6 11 10 5 4 2 1 1 1 1 0 3 7 8 7 7 10 13 11 7 5 6 13 18 14 5 1 0 9 39 79 97 95 86 69 46 33
38 37 34 41 41 19 18 32 23 14 19 19 13 15 20 16 8 7 19 31 29 25 28 33 29 19 9 5 13 27 23 8 1 1 16 50 83 97 96 86 66 44 34
20 21 34 60 64 36 33 50 43 35 50 54 44 48 57 52 36 25 38 58 58 49 46 44 40 29 15 6 11 24 24 10 2 6 26 58 83 91 90 76 52 31 22
16 13 29 66 80 58 41 50 58 60 71 78 78 79 84 84 71 56 62 75 76 71 64 52 46 43 34 24 22 25 21 11 6 15 37 62 76 80 75 62 42 23 13
33 24 38 74 91 78 53 46 58 70 76 83 89 92 92 94 87 76 77 82 78 74 71 64 59 61 61 52 41 33 22 12 13 24 43 62 71 70 63 55 44 30 19
60 51 60 82 94 91 74 60 63 72 79 86 92 95 95 94 89 81 77 76 70 60 57 59 63 68 69 59 45 35 26 19 21 31 42 58 68 67 61 58 53 44 34
80 81 80 82 90 95 89 84 80 80 86 93 95 95 91 89 86 79 68 60 54 46 42 46 52 57 54 45 35 29 28 28 30 33 39 50 61 63 61 61 59 53 48
93 96 90 83 89 96 96 94 90 87 89 89 87 84 77 67 63 60 52 44 41 38 36 39 45 48 42 32 25 21 25 33 32 30 35 45 55 56 55 59 62 61 59
98 98 94 91 93 98 96 89 82 79 74 65 61 63 55 38 30 31 31 30 29 28 26 29 41 46 38 26 15 13 22 30 32 31 37 47 53 54 50 53 64 70 70
95 96 96 96 97 97 91 78 67 60 46 33 35 42 35 18 12 13 14 17 17 13 12 17 26 29 26 18 8 7 15 21 27 36 44 49 54 54 50 52 66 78 79
87 89 92 93 90 86 80 72 62 47 25 14 21 28 21 9 6 6 6 7 6 4 4 6 8 9 9 7 4 4 6 9 15 30 45 54 57 55 52 56 70 81 84
75 77 80 82 75 67 65 59 52 40 20 10 17 27 25 14 7 5 4 4 2 1 1 0 0 0 1 1 2 1 1 2 5 15 34 52 62 63 59 60 68 78 82
52 58 66 71 62 53 48 38 33 33 20 12 21 37 45 33 18 11 7 3 1 0 0 0 0 0 0 0 0 0 0 0 1 6 17 33 53 68 69 63 63 71 79
26 38 56 64 59 51 43 36 34 32 23 23 36 54 60 47 27 18 11 5 1 0 0 0 0 0 0 0 0 0 0 0 0 2 5 13 31 55 69 67 61 66 75
11 23 43 55 58 57 55 58 58 49 39 43 56 67 64 48 33 25 20 13 6 1 0 0 0 0 0 0 0 0 0 0 0 0 1 3 12 32 56 67 66 68 74
6 15 32 47 55 61 66 75 77 67 57 58 66 70 63 49 38 31 27 23 12 3 0 0 0 0 0 0 0 0 0 0 0 0 0 1 4 18 45 65 70 73 76

GEFSSE_con_prob3kmehi_030.txt.gz
EHI
0 4 9 9 4 2 1 0 0 0 0 0 0 0 0 0 0 0 0 0 0 0 0 0 0 0 0 0 0 0 0 0 0 0 0 0 0 0 0 0 0 0 0
1 5 13 15 11 7 3 1 0 0 0 0 0 0 0 0 0 0 0 0 0 0 0 0 0 0 0 0 0 0 0 0 0 0 0 0 0 0 0 0 0 0 0
4 8 18 27 27 19 8 2 0 0 0 0 0 0 0 0 0 0 0 0 0 0 0 0 0 0 0 0 0 0 0 0 0 0 0 0 0 0 0 0 0 0 0
9 12 26 44 47 31 14 4 1 0 0 0 0 0 0 0 0 0 0 0 0 0 0 0 0 0 0 0 0 0 0 0 0 0 0 0 0 0 0 0 0 0 0
8 15 37 62 63 45 24 8 1 0 0 0 0 0 0 0 0 0 0 0 0 0 0 0 0 0 0 0 0 0 0 0 0 0 0 0 0 0 0 0 0 0 0
6 16 47 75 78 62 41 20 7 2 1 0 0 0 0 0 0 0 0 0 0 0 0 0 0 0 0 0 0 0 0 0 0 0 0 0 0 0 0 0 0 0 0
5 17 49 80 87 76 57 34 15 6 2 1 0 0 0 0 0 0 0 0 0 0 0 0 0 0 0 0 0 0 0 0 0 0 0 0 0 1 1 1 0 0 0
5 15 41 68 80 77 62 39 19 8 4 2 0 0 0 0 0 0 0 0 0 0 0 0 0 0 0 0 0 0 0 0 0 0 0 0 1 2 4 5 4 2 0
3 11 27 40 51 56 47 30 16 7 3 2 0 0 0 0 0 0 0 0 0 0 0 0 0 0 0 0 0 0 0 0 0 0 0 0 1 6 13 18 15 8 4
1 6 15 20 25 27 24 17 11 5 2 1 0 0 0 0 0 0 0 0 0 0 0 0 0 0 0 0 0 0 0 0 0 0 0 0 1 8 22 35 34 26 20
3 4 9 14 16 16 13 9 6 3 1 0 0 0 0 0 0 0 0 0 0 0 0 0 0 0 0 0 0 0 0 0 0 0 0 0 1 7 24 45 55 52 48
15 9 7 12 16 16 13 8 5 2 0 0 0 0 0 0 0 0 0 0 0 0 0 0 0 0 0 1 1 0 0 0 1 0 0 0 1 5 21 48 67 70 68
34 20 9 10 14 14 10 7 6 3 1 0 0 0 0 0 0 0 0 0 0 0 1 1 0 0 1 2 2 1 0 0 0 0 0 0 1 4 18 44 65 70 68
53 35 16 10 9 8 6 6 6 4 2 1 1 1 2 2 1 0 0 0 0 0 1 1 0 0 1 2 2 1 0 0 0 0 0 0 1 3 13 32 50 55 52
61 47 27 15 9 7 8 9 8 7 6 6 5 6 12 13 7 2 1 0 0 0 1 1 0 1 2 2 1 1 0 0 0 0 0 1 2 3 8 20 31 33 31
57 50 38 26 18 17 20 22 22 22 23 22 19 21 29 29 16 5 2 0 0 0 0 0 0 1 2 2 1 0 0 0 0 0 0 1 2 2 5 14 20 21 20
47 45 42 36 30 32 39 45 47 48 48 43 37 38 43 36 20 8 2 0 0 0 0 0 0 0 0 0 0 0 0 1 0 0 0 0 1 1 4 11 17 18 19
32 33 34 35 36 41 51 60 63 63 59 50 43 43 42 31 18 7 1 0 0 0 0 0 0 0 0 0 0 0 0 0 0 0 0 0 0 0 2 7 11 14 16
16 18 20 25 31 39 48 55 55 52 45 36 32 31 26 19 12 5 1 0 0 0 0 0 0 0 0 0 0 0 0 0 0 0 0 0 0 0 1 3 6 10 12
7 9 11 14 19 26 33 35 34 30 23 18 16 14 10 7 5 2 0 0 0 0 0 0 0 0 0 0 0 0 0 0 0 0 0 0 0 1 2 3 6 10 10
3 5 6 7 7 10 14 16 15 13 9 7 6 4 2 1 1 0 0 0 0 0 0 0 0 0 0 0 0 0 0 0 0 0 0 0 0 1 2 3 7 10 11
1 2 2 2 1 2 4 5 4 3 3 3 2 1 0 0 0 0 0 0 0 0 0 0 0 0 0 0 0 0 0 0 0 0 0 0 0 0 1 2 5 8 9
0 0 0 0 0 0 1 2 1 1 1 1 0 0 0 0 0 0 0 0 0 0 0 0 0 0 0 0 0 0 0 0 0 0 0 0 0 0 0 1 2 4 4
0 0 0 0 0 0 0 0 1 1 1 0 0 0 0 0 0 1 1 0 0 0 0 0 0 0 0 0 0 0 0 0 0 0 0 0 0 0 0 0 1 1 1
0 0 0 0 0 0 0 0 0 0 0 0 0 0 0 0 0 1 2 1 0 0 0 0 0 0 0 0 0 0 0 0 0 0 0 0 0 0 0 0 0 0 0
0 0 0 0 0 0 0 0 0 0 0 0 0 0 0 0 0 1 2 2 1 0 0 0 0 0 0 0 0 0 0 0 0 0 0 0 0 0 0 0 0 0 0

GEFSSE_con_prob3kmehi_036.txt.gz
EHI
0 4 11 11 5 2 1 2 8 20 33 41 44 43 31 16 6 1 0 0 0 0 0 0 0 0 0 0 0 0 0 0 0 0 0 0 0 0 0 0 0 0 0
0 4 11 13 11 5 1 1 6 14 23 29 31 29 22 12 4 1 0 0 0 0 0 0 0 0 0 0 0 0 0 0 0 0 0 0 0 0 0 0 0 0 0
2 4 10 18 21 14 5 2 4 8 13 15 15 13 9 5 2 1 0 0 0 0 0 0 0 0 0 0 0 0 0 0 0 0 0 0 0 0 0 0 0 0 0
3 4 13 28 36 28 13 5 3 5 7 7 6 5 3 1 1 0 0 0 0 0 0 0 0 0 0 0 0 0 0 0 0 0 0 0 0 0 0 0 0 0 0
6 5 20 44 54 44 25 9 3 3 3 2 2 1 1 0 0 0 0 0 0 0 0 0 0 0 0 0 0 0 0 0 0 0 0 0 0 0 0 0 0 0 0
10 10 28 59 70 58 37 17 6 2 1 1 0 0 0 0 0 0 0 0 0 0 0 0 0 0 0 0 0 0 0 0 0 0 0 0 0 0 0 0 0 0 0
22 22 40 71 83 71 50 29 13 5 2 2 1 0 0 0 0 0 0 0 0 0 0 0 0 0 0 0 0 0 0 0 0 0 0 0 0 0 0 0 0 0 0
39 41 55 77 87 82 65 43 25 13 7 4 2 1 0 0 0 0 0 0 0 0 0 0 0 0 0 0 0 0 0 0 0 0 0 0 0 0 0 0 0 0 0
50 55 63 72 80 81 71 52 35 23 14 8 4 1 0 0 0 0 0 0 0 0 0 0 0 0 0 0 0 0 0 0 0 0 0 0 0 0 0 0 0 0 0
51 56 62 65 69 71 64 51 38 28 18 10 5 2 0 0 0 0 0 0 0 0 0 0 0 0 0 0 0 0 0 0 0 0 0 0 0 0 0 0 0 0 0
44 48 53 58 62 61 54 43 35 26 17 10 6 2 0 0 0 0 0 0 0 0 0 0 0 0 0 0 0 0 0 0 0 0 0 0 0 0 0 0 0 0 0
31 36 41 47 53 54 48 39 32 26 18 13 8 4 2 1 1 1 1 0 0 0 0 0 0 0 0 1 1 1 0 0 0 0 0 0 0 0 0 0 0 0 0
25 29 34 39 43 44 42 36 32 30 25 19 13 9 6 4 3 2 2 1 0 0 0 0 0 0 0 1 2 1 0 0 0 0 0 0 0 0 0 0 1 1 0
28 27 30 35 37 36 34 31 31 31 29 24 19 16 12 8 4 3 3 1 0 0 1 1 0 0 0 1 1 1 0 0 0 0 0 0 0 0 0 0 1 1 1
31 26 25 28 30 29 25 22 23 25 25 24 23 22 17 11 5 3 3 2 1 0 1 1 1 0 0 0 0 1 0 0 0 1 0 0 0 0 1 1 1 1 0
28 23 17 16 17 17 14 12 13 16 19 22 22 19 15 10 5 3 3 2 1 0 0 1 1 0 0 0 0 0 0 0 0 0 0 0 0 0 1 1 0 0 0
16 13 8 7 6 5 4 5 8 10 14 17 17 12 9 7 5 2 1 1 1 0 0 0 0 0 0 0 0 0 0 0 0 0 0 0 0 0 1 1 0 0 0
5 4 3 2 2 2 2 4 7 9 10 12 11 8 6 6 4 2 0 0 0 1 1 1 0 0 0 0 0 0 0 0 0 0 0 0 0 0 0 0 0 0 0
2 2 1 1 2 3 4 4 4 6 7 6 7 7 6 6 5 2 0 0 0 1 2 1 0 0 0 0 0 0 0 0 0 0 0 0 0 0 0 0 0 0 0
1 1 0 1 2 3 3 2 1 2 3 3 4 6 6 6 5 2 0 0 0 1 1 1 0 0 0 0 0 0 0 0 0 0 0 0 0 0 0 0 0 0 1
0 0 0 0 1 1 1 0 0 0 1 2 4 5 4 3 3 1 0 0 0 0 0 0 0 0 0 0 0 0 0 0 0 0 0 0 0 0 0 0 0 0 1
0 0 0 0 0 0 0 0 0 0 1 2 2 2 1 1 1 0 0 0 0 0 0 0 0 0 0 0 0 0 0 0 0 0 0 0 0 0 0 0 0 0 1
0 0 0 0 0 0 0 0 0 0 0 1 1 1 0 0 0 0 0 0 0 0 0 0 0 0 0 0 0 0 0 0 0 0 0 0 0 0 0 0 0 0 0
0 0 0 0 0 0 0 0 0 0 0 0 0 0 0 0 0 0 0 0 0 0 0 0 0 0 0 0 0 0 0 0 0 0 0 0 0 0 0 0 0 0 0
0 0 0 0 0 0 0 0 0 0 0 0 0 0 0 0 0 0 0 0 0 0 0 0 0 0 0 0 0 0 0 0 0 0 0 0 0 0 0 0 0 0 0
0 0 0 0 0 0 0 0 0 0 0 0 0 0 0 0 0 0 0 0 0 0 0 0 0 0 0 0 0 0 0 0 0 0 0 0 0 0 0 0 0 0 0

GEFSSE_con_prob3kmehi_042.txt.gz
EHI
23 44 39 12 0 1 2 2 2 4 8 15 18 12 3 0 0 0 0 0 0 0 0 0 0 0 0 0 0 0 0 0 0 0 0 0 0 0 0 0 0 0 0
27 45 40 12 0 0 1 1 2 4 9 18 22 15 6 1 0 0 0 0 0 0 0 0 0 0 0 0 0 0 0 0 0 0 0 0 0 0 0 0 0 0 0
27 40 32 9 0 0 0 0 1 3 10 19 23 18 8 2 0 0 0 0 0 0 0 0 0 0 0 0 0 0 0 0 0 0 0 0 0 0 0 0 0 0 0
21 30 24 8 1 0 0 0 0 2 7 15 19 16 8 2 0 0 0 0 0 0 0 0 0 0 0 0 0 0 0 0 0 0 0 0 0 0 0 0 0 0 0
11 21 22 10 2 0 0 0 0 1 5 9 11 10 6 1 0 0 0 0 0 0 0 0 0 0 0 0 0 0 0 0 0 0 0 0 0 0 0 0 0 0 0
3 11 18 12 3 0 0 0 0 1 3 4 5 4 3 1 0 0 0 0 0 0 0 0 0 0 0 0 0 0 0 0 0 0 0 0 0 0 0 0 0 0 0
0 5 11 10 4 1 1 0 0 0 1 1 1 1 1 0 0 0 0 0 0 0 0 0 0 0 0 0 0 0 0 0 0 0 0 0 0 0 0 0 0 0 0
1 3 7 7 4 2 1 0 0 0 0 0 0 0 0 0 0 0 0 0 0 0 0 0 0 0 0 0 0 0 0 0 0 0 0 0 0 0 0 0 0 0 0
2 3 5 5 4 3 2 1 1 1 1 1 0 0 0 0 0 0 0 1 1 1 0 0 0 0 0 0 0 0 0 0 0 0 0 2 4 2 0 0 0 0 0
5 4 4 4 5 5 5 5 5 5 5 4 4 3 2 1 0 0 1 2 2 1 1 1 0 0 0 0 0 0 0 0 0 1 1 7 11 5 0 0 0 0 0
11 9 8 9 12 12 12 13 14 13 12 12 12 11 7 4 1 2 5 7 5 2 2 2 1 1 1 1 1 0 0 0 0 1 6 16 17 7 0 0 0 0 0
25 20 17 20 23 22 21 24 24 25 28 27 26 26 23 16 10 9 14 17 11 5 3 3 2 1 2 3 4 3 1 0 0 1 12 28 24 7 0 0 0 0 0
39 32 27 30 33 32 31 31 32 37 46 46 44 46 47 42 33 27 27 27 21 15 12 13 11 6 3 6 8 6 2 0 0 1 15 32 24 6 0 0 0 0 0
42 37 33 36 39 39 37 34 34 40 47 52 53 56 61 64 59 50 47 41 32 27 26 27 26 14 7 6 7 4 1 0 0 3 15 25 17 4 0 0 0 0 1
37 35 34 35 36 37 36 33 30 32 36 42 48 52 57 67 68 65 66 59 42 32 32 31 26 18 12 10 6 2 0 0 1 4 12 16 11 2 0 0 0 0 1
34 32 30 28 26 26 27 26 24 24 27 32 38 42 46 55 62 64 68 65 49 36 35 30 21 15 14 12 7 2 1 2 3 5 7 9 6 1 0 1 1 0 1
31 27 23 18 16 16 17 17 17 18 20 23 26 30 34 40 47 53 58 57 49 42 42 36 24 15 13 10 7 4 5 6 5 4 4 5 3 1 0 1 1 0 0
21 20 16 11 8 9 9 9 10 10 11 12 14 18 21 26 32 38 44 44 42 42 41 35 26 18 12 8 6 6 9 10 6 3 2 3 3 2 1 0 1 1 2
11 11 9 5 3 2 4 5 5 5 6 6 6 8 11 15 21 28 32 30 29 33 32 26 23 16 10 6 5 5 7 7 5 2 1 1 1 1 1 1 2 3 4
5 5 4 2 1 0 2 4 4 4 4 4 4 3 4 6 11 18 21 19 19 22 22 20 17 13 9 5 3 2 2 2 1 1 0 0 0 0 0 1 3 3 4
1 2 2 1 0 0 2 3 4 4 4 4 3 1 0 1 4 9 12 13 15 17 17 14 11 9 6 4 3 1 1 0 0 0 0 0 0 0 0 1 1 2 4
0 1 1 0 0 0 1 1 2 3 4 4 2 0 0 0 1 2 5 9 12 13 12 10 8 5 3 2 3 2 1 0 0 0 1 0 0 0 0 0 0 1 3
0 0 0 0 0 0 0 0 1 1 1 1 0 0 0 0 0 0 2 5 7 10 10 8 5 4 3 2 2 2 1 0 0 0 0 0 0 0 0 0 0 0 1
0 0 0 0 0 0 0 0 0 0 0 0 0 0 0 0 0 0 0 1 4 7 8 5 3 3 3 1 1 1 1 1 0 0 0 0 0 0 0 0 0 0 0
0 0 0 0 0 0 0 0 0 0 0 0 0 0 0 0 0 0 0 0 1 4 4 4 3 2 2 1 0 0 0 0 0 0 0 0 0 0 0 0 0 0 1
0 0 0 0 0 0 0 0 0 0 0 0 0 0 0 0 0 0 0 0 0 1 3 4 3 1 1 0 0 0 0 0 0 0 0 0 0 0 0 0 0 1 1

GEFSSE_con_prob3kmehi_048.txt.gz
EHI
72 63 60 49 28 11 2 0 0 0 0 0 0 0 0 0 0 0 0 0 0 0 0 0 0 0 0 0 0 0 0 0 0 0 0 0 0 0 0 0 0 0 0
73 62 53 40 21 8 2 0 0 0 0 0 0 0 0 0 0 0 0 0 0 0 0 0 0 0 0 0 0 0 0 0 0 0 0 0 0 0 0 0 0 0 0
62 48 36 26 11 3 1 0 0 0 0 0 0 0 0 1 1 0 0 0 0 0 0 0 0 0 0 0 0 0 0 0 0 0 0 0 0 0 0 0 0 0 0
38 26 18 13 4 1 1 1 1 2 2 1 1 1 1 1 1 0 0 0 0 0 0 0 0 0 0 0 0 0 0 0 0 0 0 0 0 0 0 0 0 0 0
21 15 10 5 1 0 1 3 4 4 4 4 3 2 1 1 1 0 0 0 0 1 2 1 0 0 0 0 0 0 0 0 0 0 0 0 0 0 0 0 0 0 0
20 17 10 4 1 0 1 2 3 4 4 3 3 3 2 2 1 1 1 1 2 4 3 2 1 0 0 0 0 0 0 0 0 0 1 3 2 1 0 0 0 0 0
31 27 15 6 2 0 0 1 1 1 1 1 2 4 4 2 1 1 3 4 7 8 6 4 3 2 1 0 0 0 0 0 0 1 5 12 12 5 1 0 0 0 0
50 41 22 8 3 1 0 0 0 0 0 1 2 3 4 2 1 2 5 9 13 14 12 8 5 4 3 1 0 0 0 0 0 0 9 25 31 21 9 2 0 0 0
63 49 24 7 4 1 0 0 0 0 0 1 2 3 3 3 1 2 6 12 18 22 21 16 11 9 8 5 2 0 0 0 0 0 10 34 53 48 27 9 1 0 0
60 47 22 8 6 3 2 2 1 0 0 0 1 1 1 1 1 2 8 15 24 30 32 29 25 22 19 13 6 2 0 0 0 0 10 39 68 69 47 21 6 1 0
48 39 25 20 18 10 10 12 6 0 1 1 2 4 4 3 2 6 15 27 35 40 42 42 41 39 31 20 10 6 3 0 0 0 12 44 75 78 59 33 14 5 1
33 31 35 45 43 27 27 32 17 7 13 13 12 20 22 16 10 12 30 48 53 52 52 53 55 51 39 24 18 17 10 2 0 0 16 52 79 81 64 40 22 10 4
29 32 46 66 67 48 43 46 30 24 35 35 32 41 48 42 30 26 42 65 70 66 63 64 64 58 43 30 29 29 18 6 2 3 23 61 83 80 65 45 29 18 10
43 45 56 74 77 64 54 52 46 42 45 49 51 56 64 67 56 45 51 65 73 72 70 69 67 59 47 38 37 36 26 13 5 8 32 65 80 74 61 47 34 24 18
64 61 66 76 78 71 63 58 55 50 44 48 57 63 68 73 70 60 56 57 60 62 63 63 60 57 54 48 45 44 37 24 12 15 38 64 71 65 56 45 34 25 20
76 73 72 73 72 70 66 60 51 45 42 46 57 63 64 68 68 64 59 52 48 48 48 49 48 50 54 53 50 50 47 35 24 25 40 56 61 56 49 42 34 26 20
77 77 73 67 64 64 61 53 43 37 36 43 52 55 55 56 57 57 56 51 46 42 38 33 32 36 41 43 43 43 42 37 32 31 35 44 48 43 38 35 34 28 23
65 65 61 56 53 51 46 39 33 29 30 37 44 44 42 40 40 42 45 45 43 39 32 23 19 21 24 25 26 27 27 30 31 27 25 29 32 29 25 24 26 24 22
44 45 43 41 39 37 32 29 26 25 27 30 33 33 30 26 25 26 29 31 31 29 23 15 11 12 13 12 12 13 17 22 22 16 13 15 17 18 16 14 15 15 13
23 26 28 27 27 26 25 25 26 25 25 25 26 25 22 17 15 16 16 17 18 17 13 9 8 7 7 5 5 6 9 12 11 7 6 7 9 10 11 13 14 10 6
9 12 16 17 16 16 18 20 20 19 18 18 18 17 14 11 10 10 9 9 8 7 6 5 5 4 3 3 3 3 3 4 4 4 4 5 5 5 8 15 19 15 8
2 4 6 6 6 7 8 10 9 8 7 8 9 9 7 6 7 7 6 5 4 3 3 3 3 2 2 2 2 1 0 1 2 2 4 4 2 3 5 13 21 20 14
2 2 3 4 4 4 4 4 3 2 1 1 2 3 2 2 3 4 4 2 2 3 3 2 1 1 1 1 1 0 1 2 2 2 3 2 1 1 2 8 17 20 17
2 2 4 7 7 6 4 2 1 0 0 0 0 0 0 0 0 1 1 1 2 2 1 1 0 0 0 0 0 0 1 3 3 3 2 1 0 0 0 3 11 17 16
1 1 4 8 10 9 5 2 0 0 0 0 0 0 0 0 0 0 0 0 1 1 0 0 0 0 0 0 0 0 1 2 2 2 1 0 0 0 1 2 7 13 14
0 0 2 7 10 9 5 1 0 0 0 0 0 0 0 0 0 0 0 0 0 0 0 0 0 0 0 0 0 0 0 0 1 1 0 0 0 1 2 3 7 10 12

GEFSSE_con_prob3kmehi_054.txt.gz
EHI
17 32 49 61 73 79 67 42 20 8 3 2 1 0 0 1 2 2 2 1 0 0 0 0 0 0 0 0 0 0 0 0 0 0 0 0 0 0 0 0 0 0 0
27 38 52 63 73 78 69 47 23 8 2 1 0 0 0 0 1 1 1 0 0 0 0 0 0 0 0 0 0 0 0 0 0 0 0 0 0 0 0 0 0 0 0
45 45 52 63 73 77 72 55 30 9 0 0 0 0 0 0 0 0 0 0 0 0 0 0 0 0 0 0 0 0 0 0 0 0 0 0 0 0 0 0 0 0 0
48 44 48 63 73 77 74 61 38 14 2 0 0 0 0 0 0 0 0 0 0 0 0 0 0 1 1 0 0 0 0 0 0 0 0 0 0 0 0 0 0 0 0
36 37 46 61 71 77 76 63 43 23 8 3 1 0 0 0 0 0 0 0 0 0 0 0 0 1 1 0 0 0 0 0 0 0 0 0 0 0 0 0 0 0 0
25 26 37 55 67 73 72 61 44 29 17 9 4 1 0 0 0 0 0 0 0 0 1 1 1 1 1 0 0 0 0 0 0 0 0 0 0 1 1 0 0 0 0
16 14 22 41 56 62 60 53 42 32 23 15 8 4 1 0 0 0 0 0 0 0 2 3 1 0 0 0 0 0 0 0 0 0 0 0 1 3 3 1 0 0 0
8 6 10 24 38 43 45 42 37 30 21 14 9 5 3 1 0 1 1 1 1 2 4 5 3 2 1 1 0 0 0 0 0 0 0 0 2 7 8 5 2 1 0
5 5 6 12 19 24 27 28 26 21 14 9 6 3 3 2 1 1 1 1 1 5 7 7 7 6 6 4 2 0 0 0 0 0 0 0 3 8 10 7 5 3 2
5 6 6 7 9 11 13 14 13 11 7 5 3 2 2 2 1 0 0 0 1 5 8 10 13 14 13 8 4 1 0 0 0 0 0 0 3 7 10 9 7 5 4
7 6 4 5 4 4 5 5 5 4 3 3 3 3 2 1 0 0 0 2 4 7 11 14 19 24 21 13 6 3 2 1 0 0 0 1 4 10 17 17 13 9 7
13 9 6 5 3 3 3 4 3 2 1 2 2 2 2 2 1 0 1 4 8 11 14 21 28 33 31 22 14 10 7 3 0 0 0 2 8 20 32 32 25 18 14
28 25 22 20 15 10 9 8 6 3 3 4 3 2 2 2 2 1 1 3 7 13 19 29 39 43 40 33 24 19 13 6 1 0 0 3 14 32 46 45 35 27 21
51 49 48 45 36 27 23 20 15 11 11 10 7 5 4 5 4 3 2 3 8 16 24 34 43 43 39 34 26 19 14 8 4 1 0 4 15 33 49 49 37 28 24
66 63 62 59 51 42 38 35 30 26 24 20 16 12 11 10 8 6 5 6 9 14 20 27 31 28 25 22 17 12 10 7 5 3 1 2 9 23 41 47 37 26 21
64 61 58 55 49 43 39 38 36 34 30 26 22 19 17 15 11 7 6 6 7 9 11 12 12 11 9 8 8 6 5 5 5 4 1 1 4 14 29 40 36 25 19
47 45 42 40 36 31 27 25 25 24 22 20 18 17 16 14 9 5 4 4 4 5 5 3 2 3 3 3 3 3 2 4 6 4 1 0 2 7 18 27 28 22 18
24 23 23 23 21 17 14 14 13 13 13 12 10 9 9 7 5 2 1 2 2 2 1 0 0 1 1 1 1 1 1 3 5 5 2 1 1 3 8 13 15 14 13
7 7 8 9 7 6 6 7 8 8 9 8 6 4 3 2 1 0 0 0 0 0 0 0 0 0 0 0 0 0 0 1 3 4 2 1 0 0 2 5 7 7 6
1 1 1 1 1 1 2 2 3 3 4 4 3 2 0 0 0 0 0 0 0 0 0 0 0 0 0 0 0 0 0 0 1 1 1 0 0 0 1 2 3 3 3
0 0 0 0 0 0 0 0 0 0 1 1 1 0 0 0 0 0 0 0 0 0 0 0 0 0 0 0 0 0 0 0 0 0 0 0 0 0 1 2 2 2 2
0 0 0 0 0 0 0 0 0 0 0 0 0 0 0 0 0 0 0 0 0 0 0 0 0 0 0 0 0 0 0 0 0 0 0 0 0 0 0 1 1 1 1
0 0 0 0 0 0 0 0 0 0 0 0 0 0 0 0 0 0 0 0 0 0 0 0 0 0 0 0 0 0 0 0 0 0 0 0 0 0 0 0 0 0 0
0 0 0 0 0 0 0 0 0 0 0 0 0 0 0 0 0 0 0 0 0 0 0 0 0 0 0 0 0 0 0 0 0 0 0 0 0 0 0 0 0 0 0
0 0 0 0 0 0 0 0 0 0 0 0 0 0 0 0 0 0 0 0 0 0 0 0 0 0 0 0 0 0 0 0 0 0 0 0 0 0 0 0 0 0 0
0 0 0 0 0 0 0 0 0 0 0 0 0 0 0 0 0 0 0 0 0 0 0 0 0 0 0 0 0 0 0 0 0 0 0 0 0 0 0 0 0 0 0

GEFSSE_con_prob3kmehi_060.txt.gz
EHI
1 3 7 17 38 56 62 67 73 77 81 83 80 76 68 53 34 16 5 1 0 0 0 0 0 0 0 0 0 0 0 0 0 0 0 0 0 0 0 0 0 0 0
5 5 8 19 40 57 65 67 66 66 67 69 69 66 59 45 26 12 4 1 0 0 0 0 0 0 0 0 0 0 0 0 0 0 0 0 0 0 0 0 0 0 0
13 7 8 22 42 60 69 67 58 50 48 50 51 48 41 29 15 5 1 0 0 0 0 0 0 0 0 0 0 0 0 0 0 0 0 0 0 0 0 0 0 0 0
22 11 10 24 43 59 68 65 51 36 30 30 29 26 20 12 5 1 0 0 0 0 0 0 0 0 0 0 0 0 0 0 0 0 0 0 0 0 0 0 0 0 0
27 16 14 27 42 53 61 59 47 31 21 16 13 10 6 2 0 0 0 0 0 0 0 0 0 0 0 0 0 0 0 0 0 0 0 0 0 0 0 0 0 0 0
30 19 17 27 37 47 55 55 48 36 23 14 8 4 2 0 0 0 0 0 0 0 0 0 0 0 0 0 0 0 0 0 0 0 0 0 0 0 0 0 0 0 0
27 19 19 27 34 42 50 52 48 40 28 18 11 6 3 1 1 0 0 0 0 0 0 0 0 0 0 0 0 0 0 0 0 0 0 0 0 0 0 0 0 0 0
24 19 20 27 32 37 43 45 43 37 29 21 13 8 5 3 2 1 0 0 0 0 1 1 0 0 0 0 0 0 0 0 0 0 0 0 0 0 0 0 0 0 0
17 15 16 21 25 28 32 34 32 29 24 18 12 9 7 4 3 1 0 0 0 0 1 1 1 1 0 0 0 0 0 0 0 0 0 0 0 1 1 0 0 0 0
7 7 9 12 15 17 19 20 22 20 17 14 11 9 6 4 2 1 1 0 0 0 1 1 1 1 1 0 0 0 1 1 1 0 0 0 0 1 2 1 0 0 0
1 2 3 6 7 9 10 12 14 15 14 13 10 8 5 2 1 0 0 0 0 0 0 0 1 1 1 0 0 2 5 5 2 0 0 0 0 1 2 2 1 1 1
2 2 1 2 3 4 5 7 9 10 11 10 9 8 6 3 2 1 1 0 0 0 0 1 1 1 2 2 3 4 8 8 4 1 0 0 0 1 2 3 3 2 2
9 7 4 3 2 2 2 3 4 5 6 6 7 10 10 7 5 4 2 1 0 0 0 1 2 3 4 5 6 7 8 8 5 2 0 0 0 0 1 3 3 3 4
21 16 10 6 4 3 2 2 2 3 4 4 6 10 11 9 6 4 3 2 1 0 0 1 2 3 4 6 6 6 6 7 5 3 1 0 0 0 1 2 3 4 5
28 20 12 7 5 4 3 3 3 3 4 4 5 8 9 6 3 2 2 2 2 1 1 1 1 2 3 3 3 3 5 4 2 1 1 1 1 1 0 1 2 5 7
21 15 8 5 3 3 3 3 4 4 3 3 4 6 5 3 2 1 2 2 2 2 1 1 0 0 1 1 1 2 3 3 1 0 0 1 2 2 1 1 2 5 7
8 6 4 3 2 2 3 3 3 3 2 3 3 3 3 2 1 2 3 2 1 1 1 0 0 0 0 0 0 1 1 1 0 0 0 0 1 1 1 2 3 5 6
1 2 2 2 1 2 3 3 2 1 2 2 2 2 2 1 1 2 3 2 0 0 0 0 0 0 0 0 0 0 0 0 0 0 0 0 0 0 0 1 3 4 4
1 1 2 1 1 1 1 1 1 0 1 1 1 1 1 0 0 1 1 1 0 0 0 0 0 0 0 0 0 0 0 0 0 0 0 0 0 0 0 1 2 3 2
0 1 1 0 0 0 0 0 0 0 0 0 0 0 0 0 0 0 0 0 0 0 0 0 0 0 0 0 0 0 0 0 0 0 0 0 0 0 0 1 2 2 1
0 0 0 0 0 0 0 0 0 0 0 0 0 0 0 0 0 0 0 0 0 0 0 0 0 0 0 0 0 0 0 0 0 0 0 0 0 0 0 0 1 1 1
0 0 0 0 0 0 0 0 0 0 0 0 0 0 0 0 0 0 0 0 0 0 0 0 0 0 0 0 0 0 0 0 0 0 0 0 0 0 0 0 0 0 1
0 0 0 0 0 0 0 0 0 0 0 0 0 0 0 0 0 0 0 0 0 0 0 0 0 0 0 0 0 0 0 0 0 0 0 0 0 0 0 0 0 0 0
0 0 0 0 0 0 0 0 0 0 0 0 0 0 0 0 0 0 0 0 0 0 0 0 0 0 0 0 0 0 0 0 0 0 0 0 0 0 0 0 0 0 0
0 0 0 0 0 0 0 0 0 0 0 0 0 0 0 0 0 0 0 0 0 0 0 0 0 0 0 0 0 0 0 0 0 0 0 0 0 0 0 0 0 0 0
0 0 0 0 0 0 0 0 0 0 0 0 0 0 0 0 0 0 0 0 0 0 0 0 0 0 0 0 0 0 0 0 0 0 0 0 0 0 0 0 0 0 0